Time,TemperatureF,DewpointF,PressureIn,WindDirection,WindDirectionDegrees,WindSpeedMPH,WindSpeedGustMPH,Humidity,HourlyPrecipIn,Conditions,Clouds,dailyrainin,SolarRadiationWatts/m^2,SoftwareType,DateUTC
2013-03-04 00:01:00,60.0,54.0,-100.00,NNE,23,0.0,0.0,80,0.00,,,0.00,0.000000,,2013-03-04 10:01:00,
2013-03-04 00:11:00,60.0,54.0,-100.00,NNE,23,0.0,0.0,80,0.00,,,0.00,0.000000,,2013-03-04 10:11:00,
2013-03-04 00:21:00,60.0,54.0,-100.00,NNE,23,0.0,0.0,80,0.00,,,0.00,0.000000,,2013-03-04 10:21:00,
2013-03-04 00:31:00,60.0,54.0,-100.00,NNE,23,0.0,0.0,80,0.00,,,0.00,0.000000,,2013-03-04 10:31:00,
2013-03-04 00:52:00,59.0,54.0,-100.00,NNE,23,0.0,1.0,82,0.00,,,0.00,0.000000,,2013-03-04 10:52:00,
2013-03-04 01:01:00,59.0,54.0,-100.00,NNE,23,0.0,1.0,82,0.00,,,0.00,0.000000,,2013-03-04 11:01:00,
2013-03-04 01:11:00,59.0,54.0,-100.00,NNE,23,0.0,1.0,82,0.00,,,0.00,0.000000,,2013-03-04 11:11:00,
2013-03-04 01:21:00,59.0,54.0,-100.00,NNE,23,0.0,1.0,82,0.00,,,0.00,0.000000,,2013-03-04 11:21:00,
2013-03-04 01:31:00,59.0,54.0,-100.00,NNE,23,0.0,1.0,82,0.00,,,0.00,0.000000,,2013-03-04 11:31:00,
2013-03-04 01:52:00,59.0,54.0,-100.00,NNE,20,0.0,0.0,84,0.00,,,0.00,0.000000,,2013-03-04 11:52:00,
2013-03-04 02:01:00,59.0,54.0,-100.00,NNE,20,0.0,0.0,84,0.00,,,0.00,0.000000,,2013-03-04 12:01:00,
2013-03-04 02:11:00,59.0,54.0,-100.00,NNE,20,0.0,0.0,84,0.00,,,0.00,0.000000,,2013-03-04 12:11:00,
2013-03-04 02:22:00,59.0,54.0,-100.00,NNE,20,0.0,0.0,84,0.00,,,0.00,0.000000,,2013-03-04 12:22:00,
2013-03-04 02:32:00,59.0,54.0,-100.00,NNE,20,0.0,0.0,84,0.00,,,0.00,0.000000,,2013-03-04 12:32:00,
2013-03-04 03:02:00,59.0,51.0,-100.00,NNE,26,0.0,0.0,75,0.00,,,0.00,0.000000,,2013-03-04 13:02:00,
2013-03-04 03:11:00,59.0,51.0,-100.00,NNE,26,0.0,0.0,75,0.00,,,0.00,0.000000,,2013-03-04 13:11:00,
2013-03-04 03:21:00,59.0,51.0,-100.00,NNE,26,0.0,0.0,75,0.00,,,0.00,0.000000,,2013-03-04 13:21:00,
2013-03-04 03:31:00,59.0,51.0,-100.00,NNE,26,0.0,0.0,75,0.00,,,0.00,0.000000,,2013-03-04 13:31:00,
2013-03-04 03:52:00,59.0,51.0,-100.00,NNE,24,0.0,0.0,74,0.00,,,0.00,0.000000,,2013-03-04 13:52:00,
2013-03-04 04:01:00,59.0,51.0,-100.00,NNE,24,0.0,0.0,74,0.00,,,0.00,0.000000,,2013-03-04 14:01:00,
2013-03-04 04:11:00,59.0,51.0,-100.00,NNE,24,0.0,0.0,74,0.00,,,0.00,0.000000,,2013-03-04 14:11:00,
2013-03-04 04:22:00,59.0,51.0,-100.00,NNE,24,0.0,0.0,74,0.00,,,0.00,0.000000,,2013-03-04 14:22:00,
2013-03-04 04:31:00,59.0,51.0,-100.00,NNE,24,0.0,0.0,74,0.00,,,0.00,0.000000,,2013-03-04 14:31:00,
2013-03-04 04:52:00,59.0,52.0,-100.00,NNE,18,0.0,0.0,79,0.00,,,0.00,0.000000,,2013-03-04 14:52:00,
2013-03-04 05:01:00,59.0,52.0,-100.00,NNE,18,0.0,0.0,79,0.00,,,0.00,0.000000,,2013-03-04 15:01:00,
2013-03-04 05:11:00,59.0,52.0,-100.00,NNE,18,0.0,0.0,79,0.00,,,0.00,0.000000,,2013-03-04 15:11:00,
2013-03-04 05:21:00,59.0,52.0,-100.00,NNE,18,0.0,0.0,79,0.00,,,0.00,0.000000,,2013-03-04 15:21:00,
2013-03-04 05:31:00,59.0,52.0,-100.00,NNE,18,0.0,0.0,79,0.00,,,0.00,0.000000,,2013-03-04 15:31:00,
2013-03-04 06:02:00,59.0,54.0,-100.00,NNE,23,0.0,0.0,84,0.00,,,0.00,0.000000,,2013-03-04 16:02:00,
2013-03-04 06:11:00,59.0,54.0,-100.00,NNE,23,0.0,0.0,84,0.00,,,0.00,0.000000,,2013-03-04 16:11:00,
2013-03-04 06:21:00,59.0,54.0,-100.00,NNE,23,0.0,0.0,84,0.00,,,0.00,0.000000,,2013-03-04 16:21:00,
2013-03-04 06:31:00,59.0,54.0,-100.00,NNE,23,0.0,0.0,84,0.00,,,0.00,0.000000,,2013-03-04 16:31:00,
2013-03-04 07:02:00,59.0,50.0,-100.00,NNE,22,1.0,4.0,71,0.00,,,0.00,0.000000,,2013-03-04 17:02:00,
2013-03-04 07:11:00,59.0,50.0,-100.00,NNE,22,1.0,4.0,71,0.00,,,0.00,0.000000,,2013-03-04 17:11:00,
2013-03-04 07:21:00,59.0,50.0,-100.00,NNE,22,1.0,4.0,71,0.00,,,0.00,0.000000,,2013-03-04 17:21:00,
2013-03-04 07:31:00,59.0,50.0,-100.00,NNE,22,1.0,4.0,71,0.00,,,0.00,0.000000,,2013-03-04 17:31:00,
2013-03-04 07:52:00,59.0,56.0,-100.00,NNE,19,0.0,0.0,90,0.00,,,0.00,0.000000,,2013-03-04 17:52:00,
2013-03-04 08:01:00,59.0,56.0,-100.00,NNE,19,0.0,0.0,90,0.00,,,0.00,0.000000,,2013-03-04 18:01:00,
2013-03-04 08:11:00,59.0,56.0,-100.00,NNE,19,0.0,0.0,90,0.00,,,0.00,0.000000,,2013-03-04 18:11:00,
2013-03-04 08:21:00,59.0,56.0,-100.00,NNE,19,0.0,0.0,90,0.00,,,0.00,0.000000,,2013-03-04 18:21:00,
2013-03-04 08:31:00,59.0,56.0,-100.00,NNE,19,0.0,0.0,90,0.00,,,0.00,0.000000,,2013-03-04 18:31:00,
2013-03-04 08:52:00,59.0,56.0,-100.00,NNE,26,0.0,0.0,91,0.00,,,-99.99,0.000000,,2013-03-04 18:52:00,
2013-03-04 09:01:00,59.0,56.0,-100.00,NNE,26,0.0,0.0,91,0.00,,,-99.99,0.000000,,2013-03-04 19:01:00,
2013-03-04 09:11:00,59.0,56.0,-100.00,NNE,26,0.0,0.0,91,0.00,,,-99.99,0.000000,,2013-03-04 19:11:00,
2013-03-04 09:21:00,59.0,56.0,-100.00,NNE,26,0.0,0.0,91,0.00,,,-99.99,0.000000,,2013-03-04 19:21:00,
2013-03-04 09:31:00,59.0,56.0,-100.00,NNE,26,0.0,0.0,91,0.00,,,-99.99,0.000000,,2013-03-04 19:31:00,
2013-03-04 10:01:00,60.0,51.0,-100.00,NNE,15,0.0,0.0,73,0.00,,,0.00,0.000000,,2013-03-04 20:01:00,
2013-03-04 10:11:00,60.0,51.0,-100.00,NNE,15,0.0,0.0,73,0.00,,,0.00,0.000000,,2013-03-04 20:11:00,
2013-03-04 10:21:00,60.0,51.0,-100.00,NNE,15,0.0,0.0,73,0.00,,,0.00,0.000000,,2013-03-04 20:21:00,
2013-03-04 10:31:00,60.0,51.0,-100.00,NNE,15,0.0,0.0,73,0.00,,,0.00,0.000000,,2013-03-04 20:31:00,
2013-03-04 10:52:00,61.0,56.0,-100.00,NNE,27,0.0,0.0,85,0.00,,,0.00,0.000000,,2013-03-04 20:52:00,
2013-03-04 11:01:00,61.0,56.0,-100.00,NNE,27,0.0,0.0,85,0.00,,,0.00,0.000000,,2013-03-04 21:01:00,
2013-03-04 11:11:00,61.0,56.0,-100.00,NNE,27,0.0,0.0,85,0.00,,,0.00,0.000000,,2013-03-04 21:11:00,
2013-03-04 11:21:00,61.0,56.0,-100.00,NNE,27,0.0,0.0,85,0.00,,,0.00,0.000000,,2013-03-04 21:21:00,
2013-03-04 11:31:00,61.0,56.0,-100.00,NNE,27,0.0,0.0,85,0.00,,,0.00,0.000000,,2013-03-04 21:31:00,
2013-03-04 12:01:00,62.0,55.0,-100.00,NNE,28,0.0,0.0,77,0.00,,,0.00,0.000000,,2013-03-04 22:01:00,
2013-03-04 12:11:00,62.0,55.0,-100.00,NNE,28,0.0,0.0,77,0.00,,,0.00,0.000000,,2013-03-04 22:11:00,
2013-03-04 12:21:00,62.0,55.0,-100.00,NNE,28,0.0,0.0,77,0.00,,,0.00,0.000000,,2013-03-04 22:21:00,
2013-03-04 12:31:00,62.0,55.0,-100.00,NNE,28,0.0,0.0,77,0.00,,,0.00,0.000000,,2013-03-04 22:31:00,
2013-03-04 12:52:00,61.0,54.0,-100.00,NNE,23,0.0,0.0,78,0.00,,,0.00,0.000000,,2013-03-04 22:52:00,
2013-03-04 13:01:00,61.0,54.0,-100.00,NNE,23,0.0,0.0,78,0.00,,,0.00,0.000000,,2013-03-04 23:01:00,
2013-03-04 13:11:00,61.0,54.0,-100.00,NNE,23,0.0,0.0,78,0.00,,,0.00,0.000000,,2013-03-04 23:11:00,
2013-03-04 13:21:00,61.0,54.0,-100.00,NNE,23,0.0,0.0,78,0.00,,,0.00,0.000000,,2013-03-04 23:21:00,
2013-03-04 13:31:00,61.0,54.0,-100.00,NNE,23,0.0,0.0,78,0.00,,,0.00,0.000000,,2013-03-04 23:31:00,
2013-03-04 13:52:00,63.0,56.0,-100.00,NNE,21,0.0,5.0,79,0.00,,,0.00,0.000000,,2013-03-04 23:52:00,
2013-03-04 14:01:00,63.0,56.0,-100.00,NNE,21,0.0,5.0,79,0.00,,,0.00,0.000000,,2013-03-05 00:01:00,
2013-03-04 14:11:00,63.0,56.0,-100.00,NNE,21,0.0,5.0,79,0.00,,,0.00,0.000000,,2013-03-05 00:11:00,
2013-03-04 14:21:00,63.0,56.0,-100.00,NNE,21,0.0,5.0,79,0.00,,,0.00,0.000000,,2013-03-05 00:21:00,
2013-03-04 14:32:00,63.0,56.0,-100.00,NNE,21,0.0,5.0,79,0.00,,,0.00,0.000000,,2013-03-05 00:32:00,
2013-03-04 15:01:00,62.0,55.0,-100.00,NNE,25,0.0,5.0,77,0.00,,,0.00,0.000000,,2013-03-05 01:01:00,
2013-03-04 15:12:00,62.0,55.0,-100.00,NNE,25,0.0,5.0,77,0.00,,,0.00,0.000000,,2013-03-05 01:12:00,
2013-03-04 15:21:00,62.0,55.0,-100.00,NNE,25,0.0,5.0,77,0.00,,,0.00,0.000000,,2013-03-05 01:21:00,
2013-03-04 15:32:00,62.0,55.0,-100.00,NNE,25,0.0,5.0,77,0.00,,,0.00,0.000000,,2013-03-05 01:32:00,
2013-03-04 15:52:00,62.0,55.0,-100.00,NNE,22,0.0,0.0,78,0.00,,,0.00,0.000000,,2013-03-05 01:52:00,
2013-03-04 16:01:00,62.0,55.0,-100.00,NNE,22,0.0,0.0,78,0.00,,,0.00,0.000000,,2013-03-05 02:01:00,
2013-03-04 16:11:00,62.0,55.0,-100.00,NNE,22,0.0,0.0,78,0.00,,,0.00,0.000000,,2013-03-05 02:11:00,
2013-03-04 16:21:00,62.0,55.0,-100.00,NNE,22,0.0,0.0,78,0.00,,,0.00,0.000000,,2013-03-05 02:21:00,
2013-03-04 16:31:00,62.0,55.0,-100.00,NNE,22,0.0,0.0,78,0.00,,,0.00,0.000000,,2013-03-05 02:31:00,
2013-03-04 16:52:00,62.0,55.0,-100.00,NNE,24,0.0,1.0,78,0.00,,,0.00,0.000000,,2013-03-05 02:52:00,
2013-03-04 17:01:00,62.0,55.0,-100.00,NNE,24,0.0,1.0,78,0.00,,,0.00,0.000000,,2013-03-05 03:01:00,
2013-03-04 17:12:00,62.0,55.0,-100.00,NNE,24,0.0,1.0,78,0.00,,,0.00,0.000000,,2013-03-05 03:12:00,
2013-03-04 17:21:00,62.0,55.0,-100.00,NNE,24,0.0,1.0,78,0.00,,,0.00,0.000000,,2013-03-05 03:21:00,
2013-03-04 17:31:00,62.0,55.0,-100.00,NNE,24,0.0,1.0,78,0.00,,,0.00,0.000000,,2013-03-05 03:31:00,
2013-03-04 18:01:00,60.0,53.0,-100.00,NNE,23,0.0,0.0,78,0.00,,,0.00,0.000000,,2013-03-05 04:01:00,
2013-03-04 18:11:00,60.0,53.0,-100.00,NNE,23,0.0,0.0,78,0.00,,,0.00,0.000000,,2013-03-05 04:11:00,
2013-03-04 18:21:00,60.0,53.0,-100.00,NNE,23,0.0,0.0,78,0.00,,,0.00,0.000000,,2013-03-05 04:21:00,
2013-03-04 18:31:00,60.0,53.0,-100.00,NNE,23,0.0,0.0,78,0.00,,,0.00,0.000000,,2013-03-05 04:31:00,
2013-03-04 18:52:00,59.0,53.0,-100.00,NNE,33,0.0,1.0,81,0.00,,,0.00,0.000000,,2013-03-05 04:52:00,
2013-03-04 19:01:00,59.0,53.0,-100.00,NNE,33,0.0,1.0,81,0.00,,,0.00,0.000000,,2013-03-05 05:01:00,
2013-03-04 19:11:00,59.0,53.0,-100.00,NNE,33,0.0,1.0,81,0.00,,,0.00,0.000000,,2013-03-05 05:11:00,
2013-03-04 19:22:00,59.0,53.0,-100.00,NNE,33,0.0,1.0,81,0.00,,,0.00,0.000000,,2013-03-05 05:22:00,
2013-03-04 19:31:00,59.0,53.0,-100.00,NNE,33,0.0,1.0,81,0.00,,,0.00,0.000000,,2013-03-05 05:31:00,
2013-03-04 19:52:00,59.0,54.0,-100.00,NNE,28,0.0,0.0,84,0.00,,,0.00,0.000000,,2013-03-05 05:52:00,
2013-03-04 20:01:00,59.0,54.0,-100.00,NNE,28,0.0,0.0,84,0.00,,,0.00,0.000000,,2013-03-05 06:01:00,
2013-03-04 20:11:00,59.0,54.0,-100.00,NNE,28,0.0,0.0,84,0.00,,,0.00,0.000000,,2013-03-05 06:11:00,
2013-03-04 20:22:00,59.0,54.0,-100.00,NNE,28,0.0,0.0,84,0.00,,,0.00,0.000000,,2013-03-05 06:22:00,
2013-03-04 20:31:00,59.0,54.0,-100.00,NNE,28,0.0,0.0,84,0.00,,,0.00,0.000000,,2013-03-05 06:31:00,
2013-03-04 20:52:00,59.0,54.0,-100.00,NNE,26,0.0,0.0,83,0.00,,,0.00,0.000000,,2013-03-05 06:52:00,
2013-03-04 21:01:00,59.0,54.0,-100.00,NNE,26,0.0,0.0,83,0.00,,,0.00,0.000000,,2013-03-05 07:01:00,
2013-03-04 21:11:00,59.0,54.0,-100.00,NNE,26,0.0,0.0,83,0.00,,,0.00,0.000000,,2013-03-05 07:11:00,
2013-03-04 21:21:00,59.0,54.0,-100.00,NNE,26,0.0,0.0,83,0.00,,,0.00,0.000000,,2013-03-05 07:21:00,
2013-03-04 21:31:00,59.0,54.0,-100.00,NNE,26,0.0,0.0,83,0.00,,,0.00,0.000000,,2013-03-05 07:31:00,
2013-03-04 21:52:00,59.0,54.0,-100.00,NNE,23,0.0,0.0,82,0.00,,,0.00,0.000000,,2013-03-05 07:52:00,
2013-03-04 22:02:00,59.0,54.0,-100.00,NNE,23,0.0,0.0,82,0.00,,,0.00,0.000000,,2013-03-05 08:02:00,
2013-03-04 22:11:00,59.0,54.0,-100.00,NNE,23,0.0,0.0,82,0.00,,,0.00,0.000000,,2013-03-05 08:11:00,
2013-03-04 22:21:00,59.0,54.0,-100.00,NNE,23,0.0,0.0,82,0.00,,,0.00,0.000000,,2013-03-05 08:21:00,
2013-03-04 22:31:00,59.0,54.0,-100.00,NNE,23,0.0,0.0,82,0.00,,,0.00,0.000000,,2013-03-05 08:31:00,
2013-03-04 22:52:00,58.0,53.0,-100.00,NNE,23,0.0,0.0,83,0.00,,,0.00,0.000000,,2013-03-05 08:52:00,
2013-03-04 23:01:00,58.0,53.0,-100.00,NNE,23,0.0,0.0,83,0.00,,,0.00,0.000000,,2013-03-05 09:01:00,
2013-03-04 23:11:00,58.0,53.0,-100.00,NNE,23,0.0,0.0,83,0.00,,,0.00,0.000000,,2013-03-05 09:11:00,
2013-03-04 23:21:00,58.0,53.0,-100.00,NNE,23,0.0,0.0,83,0.00,,,0.00,0.000000,,2013-03-05 09:21:00,
2013-03-04 23:31:00,58.0,53.0,-100.00,NNE,23,0.0,0.0,83,0.00,,,0.00,0.000000,,2013-03-05 09:31:00,
2013-03-04 23:52:00,59.0,53.0,-100.00,NNE,25,0.0,0.0,80,0.00,,,0.00,0.000000,,2013-03-05 09:52:00,